EWG4151 EDDS-EDDK

Flight info

Callsign EWG4151
Flight time 0h 31m
Altitude 22000
Route TAGIK4B/25 TAGIK Z3 VATAK T840 GULKO GULKO1B
Aircraft A320/M-SDE3FGHIRWY/LB1

Departure

Time 2026-04-20 17:03
Airport Stuttgart Airport (EDDS)

Arrival

Time 2026-04-20 17:35
Airport Cologne Bonn Airport (EDDK)
Time Latitude Longitude Altitude Speed Heading
2026-04-20 16:43 48.68943 9.19645 1315 ft 0 kts 344°
2026-04-20 16:55 48.68941 9.19645 1314 ft 1 kts 344°
2026-04-20 16:55 48.68925 9.19652 1313 ft 3 kts 347°
2026-04-20 16:55 48.68905 9.19658 1312 ft 3 kts 354°
2026-04-20 16:56 48.68885 9.19659 1310 ft 3 kts
2026-04-20 16:56 48.68866 9.19654 1309 ft 3 kts 33°
2026-04-20 16:56 48.68856 9.19640 1309 ft 1 kts 73°
2026-04-20 16:56 48.68856 9.19637 1309 ft 0 kts 74°
2026-04-20 16:58 48.68857 9.19647 1309 ft 5 kts 74°
2026-04-20 16:58 48.68878 9.19755 1306 ft 13 kts 74°
2026-04-20 16:58 48.68862 9.19882 1301 ft 15 kts 151°
2026-04-20 16:59 48.68833 9.20015 1295 ft 17 kts 68°
2026-04-20 16:59 48.68873 9.20211 1291 ft 25 kts 74°
2026-04-20 16:59 48.68925 9.20488 1284 ft 30 kts 74°
2026-04-20 16:59 48.68988 9.20808 1275 ft 34 kts 73°
2026-04-20 17:00 48.69108 9.21443 1268 ft 31 kts 73°
2026-04-20 17:00 48.69169 9.21772 1258 ft 29 kts 75°
2026-04-20 17:00 48.69226 9.22068 1251 ft 29 kts 74°
2026-04-20 17:01 48.69285 9.22383 1250 ft 33 kts 74°
2026-04-20 17:01 48.69353 9.22732 1231 ft 36 kts 73°
2026-04-20 17:01 48.69425 9.23107 1225 ft 38 kts 73°
2026-04-20 17:01 48.69495 9.23478 1248 ft 34 kts 73°
2026-04-20 17:02 48.69489 9.23715 1256 ft 21 kts 147°
2026-04-20 17:02 48.69348 9.23651 1221 ft 20 kts 225°
2026-04-20 17:02 48.69241 9.23445 1208 ft 27 kts 243°
2026-04-20 17:02 48.69135 9.22978 1218 ft 80 kts 254°
2026-04-20 17:03 48.68929 9.21846 1262 ft 138 kts 263°
2026-04-20 17:03 48.68664 9.20379 1799 ft 145 kts 259°
2026-04-20 17:03 48.68380 9.18909 2526 ft 146 kts 258°
2026-04-20 17:03 48.68079 9.17347 2965 ft 165 kts 257°
2026-04-20 17:04 48.67732 9.15562 3315 ft 189 kts 257°
2026-04-20 17:04 48.67333 9.13537 3727 ft 213 kts 256°
2026-04-20 17:04 48.66986 9.11276 4196 ft 234 kts 273°
2026-04-20 17:04 48.67474 9.08925 4940 ft 240 kts 304°
2026-04-20 17:05 48.68530 9.06967 5873 ft 242 kts 324°
2026-04-20 17:05 48.70085 9.05915 6698 ft 255 kts 345°
2026-04-20 17:05 48.71841 9.05197 7451 ft 265 kts 342°
2026-04-20 17:05 48.73624 9.04372 8394 ft 269 kts 340°
2026-04-20 17:06 48.75418 9.03488 9372 ft 273 kts 339°
2026-04-20 17:06 48.77232 9.02568 10302 ft 278 kts 339°
2026-04-20 17:06 48.79143 9.01582 10710 ft 302 kts 338°
2026-04-20 17:06 48.81176 9.00449 11191 ft 318 kts 336°
2026-04-20 17:07 48.83256 8.99220 11994 ft 323 kts 336°
2026-04-20 17:07 48.85361 8.97953 12877 ft 327 kts 335°
2026-04-20 17:07 48.87487 8.96669 13728 ft 331 kts 335°
2026-04-20 17:07 48.89637 8.95375 14467 ft 334 kts 335°
2026-04-20 17:08 48.91808 8.94081 15262 ft 336 kts 335°
2026-04-20 17:08 48.94003 8.92823 16046 ft 339 kts 339°
2026-04-20 17:08 48.96337 8.92089 16825 ft 347 kts 350°
2026-04-20 17:08 48.98774 8.92098 17539 ft 355 kts
2026-04-20 17:09 49.01243 8.92451 18279 ft 358 kts
2026-04-20 17:09 49.03736 8.92802 18917 ft 361 kts
2026-04-20 17:09 49.06249 8.93152 19543 ft 364 kts 360°
2026-04-20 17:09 49.08754 8.93495 20154 ft 367 kts 359°
2026-04-20 17:10 49.11309 8.93843 20754 ft 371 kts 359°
2026-04-20 17:10 49.13954 8.94198 20998 ft 385 kts 359°
2026-04-20 17:10 49.16671 8.94558 21134 ft 399 kts 359°
2026-04-20 17:10 49.19484 8.94934 21295 ft 412 kts
2026-04-20 17:11 49.22348 8.95329 21424 ft 424 kts
2026-04-20 17:11 49.25318 8.95748 21557 ft 434 kts
2026-04-20 17:11 49.28359 8.96178 21711 ft 443 kts
2026-04-20 17:11 49.31443 8.96616 21987 ft 447 kts
2026-04-20 17:12 49.34551 8.97058 22099 ft 449 kts
2026-04-20 17:12 49.37661 8.97498 22116 ft 448 kts
2026-04-20 17:12 49.40769 8.97940 22133 ft 448 kts
2026-04-20 17:12 49.43887 8.98385 22111 ft 449 kts
2026-04-20 17:13 49.47003 8.98826 22119 ft 450 kts
2026-04-20 17:13 49.50120 8.99261 22116 ft 450 kts
2026-04-20 17:13 49.53243 8.99695 22118 ft 450 kts
2026-04-20 17:13 49.56359 9.00125 22118 ft 450 kts
2026-04-20 17:14 49.59470 9.00208 22114 ft 446 kts 352°
2026-04-20 17:14 49.62481 8.99230 22126 ft 441 kts 339°
2026-04-20 17:14 49.65252 8.97228 22111 ft 440 kts 327°
2026-04-20 17:14 49.67774 8.94558 22106 ft 440 kts 324°
2026-04-20 17:15 49.70285 8.91830 22097 ft 441 kts 323°
2026-04-20 17:15 49.72789 8.89093 22106 ft 442 kts 323°
2026-04-20 17:15 49.75302 8.86338 22106 ft 442 kts 323°
2026-04-20 17:15 49.77813 8.83581 22105 ft 443 kts 323°
2026-04-20 17:16 49.80324 8.80823 22107 ft 443 kts 323°
2026-04-20 17:16 49.82842 8.78053 22109 ft 443 kts 323°
2026-04-20 17:16 49.85352 8.75282 22111 ft 443 kts 323°
2026-04-20 17:16 49.87863 8.72506 22118 ft 446 kts 324°
2026-04-20 17:17 49.90415 8.69701 22128 ft 451 kts 324°
2026-04-20 17:17 49.92987 8.66884 22137 ft 453 kts 324°
2026-04-20 17:17 49.95533 8.64094 22139 ft 454 kts 324°
2026-04-20 17:17 49.98112 8.61267 22139 ft 454 kts 324°
2026-04-20 17:18 50.00697 8.58430 22139 ft 454 kts 324°
2026-04-20 17:18 50.03278 8.55592 22139 ft 454 kts 325°
2026-04-20 17:18 50.05995 8.53103 22138 ft 454 kts 335°
2026-04-20 17:18 50.08954 8.51374 22140 ft 454 kts 341°
2026-04-20 17:19 50.11940 8.49761 22138 ft 454 kts 341°
2026-04-20 17:19 50.14935 8.48155 22122 ft 455 kts 341°
2026-04-20 17:19 50.17932 8.46555 22119 ft 456 kts 342°
2026-04-20 17:19 50.20937 8.44945 22111 ft 457 kts 341°
2026-04-20 17:20 50.23946 8.43319 22103 ft 458 kts 341°
2026-04-20 17:20 50.26917 8.41704 21955 ft 444 kts 341°
2026-04-20 17:20 50.29696 8.39856 21822 ft 425 kts 331°
2026-04-20 17:20 50.32151 8.37478 21685 ft 407 kts 328°
2026-04-20 17:21 50.34500 8.35140 21377 ft 395 kts 328°
2026-04-20 17:21 50.36806 8.32842 20778 ft 392 kts 328°
2026-04-20 17:21 50.39097 8.30555 20223 ft 388 kts 328°
2026-04-20 17:21 50.41357 8.28290 19727 ft 383 kts 328°
2026-04-20 17:22 50.43569 8.26067 18951 ft 373 kts 328°
2026-04-20 17:22 50.45733 8.23895 18043 ft 366 kts 328°
2026-04-20 17:22 50.47865 8.21757 17133 ft 361 kts 328°
2026-04-20 17:22 50.49974 8.19647 16660 ft 357 kts 328°
2026-04-20 17:23 50.52060 8.17556 16183 ft 354 kts 328°
2026-04-20 17:23 50.54128 8.15479 15711 ft 350 kts 328°
2026-04-20 17:23 50.56172 8.13421 15257 ft 347 kts 328°
2026-04-20 17:23 50.58200 8.11376 14797 ft 344 kts 328°
2026-04-20 17:24 50.60211 8.09347 14336 ft 342 kts 328°
2026-04-20 17:24 50.62084 8.07111 13509 ft 346 kts 315°
2026-04-20 17:24 50.63426 8.03992 12545 ft 344 kts 294°
2026-04-20 17:24 50.64033 8.00394 11665 ft 338 kts 281°
2026-04-20 17:25 50.64420 7.96744 11114 ft 336 kts 281°
2026-04-20 17:25 50.64796 7.93124 10611 ft 334 kts 281°
2026-04-20 17:25 50.65165 7.89549 10309 ft 325 kts 280°
2026-04-20 17:25 50.65521 7.86100 10190 ft 313 kts 281°
2026-04-20 17:26 50.65864 7.82781 10064 ft 301 kts 282°
2026-04-20 17:26 50.66196 7.79577 9795 ft 292 kts 281°
2026-04-20 17:26 50.66517 7.76484 9445 ft 277 kts 282°
2026-04-20 17:26 50.66813 7.73594 9311 ft 256 kts 282°
2026-04-20 17:27 50.67086 7.70927 9152 ft 237 kts 282°
2026-04-20 17:27 50.67343 7.68416 8847 ft 228 kts 281°
2026-04-20 17:27 50.67591 7.66003 8436 ft 224 kts 281°
2026-04-20 17:27 50.67839 7.63600 7993 ft 221 kts 281°
2026-04-20 17:28 50.68084 7.61230 7562 ft 217 kts 283°
2026-04-20 17:28 50.68323 7.58900 7104 ft 215 kts 282°
2026-04-20 17:28 50.68565 7.56552 6520 ft 219 kts 280°
2026-04-20 17:28 50.68806 7.54162 5889 ft 222 kts 281°
2026-04-20 17:29 50.69047 7.51737 5297 ft 224 kts 281°
2026-04-20 17:29 50.69282 7.49351 4993 ft 214 kts 281°
2026-04-20 17:29 50.69506 7.47075 4732 ft 207 kts 281°
2026-04-20 17:29 50.69726 7.44874 4595 ft 200 kts 282°
2026-04-20 17:30 50.69947 7.42692 4493 ft 206 kts 282°
2026-04-20 17:30 50.70178 7.40448 4406 ft 207 kts 283°
2026-04-20 17:30 50.70662 7.38335 4289 ft 204 kts 303°
2026-04-20 17:30 50.71571 7.36649 4072 ft 201 kts 320°
2026-04-20 17:31 50.72613 7.35159 3810 ft 203 kts 320°
2026-04-20 17:31 50.73658 7.33661 3537 ft 204 kts 320°
2026-04-20 17:31 50.74707 7.32156 3259 ft 204 kts 320°
2026-04-20 17:31 50.75759 7.30644 2978 ft 205 kts 320°
2026-04-20 17:32 50.76815 7.29125 2698 ft 206 kts 320°
2026-04-20 17:32 50.77878 7.27596 2412 ft 207 kts 320°
2026-04-20 17:32 50.78945 7.26059 2128 ft 207 kts 320°
2026-04-20 17:32 50.79986 7.24558 1860 ft 200 kts 320°
2026-04-20 17:33 50.80974 7.23132 1575 ft 181 kts 320°
2026-04-20 17:33 50.81854 7.21861 1338 ft 167 kts 319°
2026-04-20 17:33 50.82679 7.20671 1110 ft 156 kts 320°
2026-04-20 17:33 50.83451 7.19557 897 ft 144 kts 320°
2026-04-20 17:34 50.84178 7.18508 716 ft 139 kts 319°
2026-04-20 17:34 50.84886 7.17480 517 ft 137 kts 319°
2026-04-20 17:34 50.85588 7.16465 355 ft 137 kts 319°
2026-04-20 17:34 50.86240 7.15522 294 ft 110 kts 318°
2026-04-20 17:35 50.86660 7.14917 272 ft 57 kts 317°
2026-04-20 17:35 50.86868 7.14553 261 ft 26 kts 297°
2026-04-20 17:35 50.86895 7.14263 256 ft 28 kts 280°
2026-04-20 17:35 50.86899 7.14219 256 ft 1 kts 279°
2026-04-20 17:36 50.86903 7.14189 255 ft 9 kts 279°
2026-04-20 17:36 50.86960 7.14025 251 ft 26 kts 317°
2026-04-20 17:36 50.87026 7.13930 245 ft 1 kts 318°
2026-04-20 17:36 50.87030 7.13925 245 ft 0 kts 318°
2026-04-20 17:37 50.87035 7.13917 244 ft 3 kts 318°
2026-04-20 17:37 50.87057 7.13886 243 ft 6 kts 318°
2026-04-20 17:37 50.87126 7.13787 241 ft 24 kts 317°
2026-04-20 17:38 50.87262 7.13588 238 ft 28 kts 317°
2026-04-20 17:38 50.87411 7.13375 233 ft 29 kts 317°
2026-04-20 17:38 50.87557 7.13158 233 ft 29 kts 317°
2026-04-20 17:38 50.87704 7.12946 233 ft 28 kts 317°
2026-04-20 17:39 50.87782 7.12735 232 ft 23 kts 275°
2026-04-20 17:39 50.87899 7.12613 232 ft 22 kts 349°
2026-04-20 17:39 50.88019 7.12467 232 ft 18 kts 316°
2026-04-20 17:39 50.88097 7.12308 232 ft 18 kts 289°
2026-04-20 17:40 50.88080 7.12217 233 ft 6 kts 217°
2026-04-20 17:40 50.88066 7.12200 232 ft 1 kts 216°
2026-04-20 17:40 50.88063 7.12197 232 ft 2 kts 216°
2026-04-20 17:40 50.88059 7.12193 232 ft 0 kts 216°
2026-04-20 17:41 50.88057 7.12190 232 ft 0 kts 216°